Temperature
8 7 7 7 8 8 8 8 8 9 10 9 9 9 10 10 10 10 10 10 10 10 10 10 10 10 10 10 9 10 10 10 10 10 10 10 11 11 11 11 11 11 11 11
8 7 8 8 8 8 8 7 7 8 9 9 8 9 9 10 10 9 9 9 9 9 9 9 9 9 9 9 9 9 9 9 10 10 10 10 10 10 10 11 11 11 11 11
7 7 8 8 8 7 7 7 7 7 7 9 8 8 9 9 9 9 9 9 9 9 9 9 9 9 9 9 9 9 9 9 9 9 9 9 9 10 10 10 10 10 10 10
7 8 8 7 7 7 6 7 7 7 6 6 8 6 8 9 9 8 8 8 9 9 8 8 8 8 8 8 8 8 8 8 8 8 9 9 9 9 9 10 10 10 10 10
6 7 7 7 7 7 7 7 7 7 6 6 7 6 7 9 8 8 8 8 8 8 8 8 8 8 8 8 8 8 8 8 8 8 8 8 8 9 9 9 9 9 9 10
6 7 7 6 7 7 7 7 6 6 6 5 7 7 7 8 8 8 8 8 8 8 8 8 8 7 7 7 7 7 7 7 7 7 8 8 8 8 8 8 8 9 9 9
6 7 7 6 6 6 6 5 5 5 5 6 8 7 7 8 7 7 7 8 8 8 8 7 7 7 7 7 7 7 7 7 7 7 7 7 8 8 8 8 8 8 8 8
5 5 6 6 6 5 5 5 4 5 5 6 7 6 6 7 7 7 7 7 7 7 7 7 7 7 7 7 7 6 7 7 6 7 7 7 7 7 7 7 8 8 8 8
4 4 6 6 6 5 5 5 5 4 5 5 6 7 7 7 6 6 6 6 7 6 6 6 6 6 6 6 6 6 6 6 6 6 6 6 7 7 7 7 7 7 7 7
3 3 5 6 6 5 5 5 4 4 4 5 6 6 6 5 5 5 5 5 5 5 5 5 5 5 5 6 6 6 6 6 6 6 6 6 6 6 6 6 7 7 7 7
4 3 3 5 4 4 4 4 4 4 4 4 5 5 6 5 5 4 4 4 4 4 4 4 4 5 5 5 5 5 5 5 5 5 5 5 6 6 6 6 6 6 6 6
3 2 2 4 5 5 4 4 4 3 3 4 4 4 5 5 4 4 4 4 4 4 4 4 4 4 4 4 4 4 4 4 5 5 5 5 5 5 5 5 5 6 6 6
2 1 2 3 3 3 3 4 4 3 3 3 3 4 5 5 4 4 4 3 3 3 3 3 3 3 3 3 4 4 4 4 4 4 4 4 4 4 5 5 5 5 5 5
2 1 1 2 3 2 2 3 3 2 2 2 3 3 4 4 4 3 3 3 3 3 3 2 2 2 2 3 3 3 3 3 3 3 4 4 4 4 4 4 4 5 5 5
1 0 1 1 2 3 2 2 2 2 2 2 3 3 3 3 3 3 3 2 2 2 2 2 2 2 2 2 2 2 3 3 3 3 3 3 3 3 4 4 4 4 4 4
-0 -0 0 1 2 2 2 2 2 2 2 2 2 2 3 3 3 2 2 1 1 1 1 1 1 1 1 1 1 2 2 2 2 3 3 3 3 3 3 3 3 4 4 4
-1 -1 -0 1 2 2 1 1 1 1 1 1 1 1 2 2 2 1 1 1 0 0 -0 0 0 0 1 1 1 1 2 2 2 2 2 2 2 3 2 3 3 3 3 3
-1 -1 -1 0 0 -0 1 2 2 1 1 1 1 1 1 1 1 1 1 -0 -1 -1 -1 -0 -0 0 0 0 1 1 1 1 1 2 2 2 2 2 2 2 2 2 3 3
-1 -1 -1 -0 -0 1 1 1 0 -0 -1 -0 -0 -0 0 1 1 0 -0 -1 -1 -1 -1 -1 -0 -0 -0 0 0 0 1 1 1 1 1 1 1 2 2 2 2 2 2 2
-2 -2 -2 -1 -0 0 1 -0 0 -0 -1 -1 -0 -1 -1 -1 -2 -1 -1 -1 -1 -1 -1 -1 -1 -1 -1 -1 -0 0 0 1 1 1 1 1 1 1 1 1 1 1 1 2
-3 -2 -2 -1 -1 -1 -0 -1 -0 -1 -2 -1 -1 -1 -1 -2 -2 -2 -2 -2 -2 -2 -1 -1 -1 -1 -1 -1 -1 -0 -0 0 0 0 0 1 1 1 1 1 1 1 1 1
-2 -2 -2 -2 -2 -1 -1 -2 -2 -2 -1 -1 -1 -1 -2 -2 -2 -2 -3 -2 -2 -2 -2 -2 -2 -2 -2 -1 -1 -1 -1 -1 -0 -0 0 0 0 0 0 0 0 1 1 1
-2 -2 -2 -2 -1 -0 -1 -1 -1 -1 -2 -2 -2 -2 -2 -3 -3 -3 -3 -3 -3 -3 -3 -2 -2 -2 -2 -2 -2 -1 -1 -1 -1 -1 -0 -0 -0 -0 -0 -0 -0 -0 -0 -0
-2 -2 -2 -2 -2 -1 -1 -1 -1 -2 -2 -2 -3 -3 -3 -3 -3 -4 -4 -4 -3 -3 -3 -3 -3 -3 -2 -2 -2 -2 -2 -2 -1 -1 -1 -1 -1 -1 -1 -1 -1 -1 -1 -0
-1 -3 -3 -3 -3 -2 -1 -1 -2 -2 -3 -3 -3 -3 -4 -4 -4 -4 -4 -4 -4 -4 -3 -3 -3 -3 -3 -3 -2 -2 -2 -2 -2 -2 -2 -1 -1 -1 -1 -1 -1 -1 -1 -1
-2 -3 -3 -3 -2 -3 -2 -2 -2 -3 -3 -3 -3 -4 -4 -4 -4 -4 -4 -4 -4 -4 -4 -4 -3 -3 -3 -3 -3 -3 -3 -3 -2 -2 -2 -2 -2 -2 -2 -2 -1 -1 -1 -1
Wind_Speed
0 1 2 4 5 6 7 8 10 11 8 7 10 12 10 8 6 4 3 3 3 3 1 2 2 3 4 4 4 3 4 3 3 3 3 3 3 3 3 3 4 4 4 4
1 2 4 5 5 7 8 8 8 8 8 8 9 11 10 7 5 4 4 3 3 3 1 2 2 3 4 4 4 4 4 3 3 3 3 2 2 2 2 2 3 4 5 4
2 3 4 5 5 7 8 7 7 8 10 8 7 8 6 4 3 3 3 3 3 3 3 2 2 2 3 4 4 4 4 3 3 3 3 3 2 2 2 2 2 3 5 4
3 3 4 5 5 6 7 7 8 9 6 4 4 5 6 4 4 3 3 3 3 3 2 2 2 2 3 3 4 4 4 3 3 3 4 5 3 3 2 3 2 2 3 4
3 4 5 5 6 7 5 8 9 9 7 6 5 5 5 3 4 4 4 3 3 2 3 2 2 3 2 2 3 4 4 4 3 3 4 4 3 2 1 2 3 2 2 3
4 2 3 4 5 5 6 6 6 6 3 4 5 4 4 1 4 2 2 2 2 2 2 2 2 3 3 2 2 3 4 4 3 3 3 3 4 3 3 2 3 2 2 2
3 1 0 2 4 3 4 3 2 1 2 4 2 2 2 2 2 2 1 1 1 1 2 2 2 3 3 3 2 2 3 3 3 3 3 3 4 4 4 3 3 3 3 2
4 3 1 2 2 3 3 2 1 2 3 3 1 3 1 4 5 5 4 1 1 2 1 1 2 2 3 3 2 2 2 2 2 2 2 2 3 3 2 3 3 3 3 3
4 3 3 3 3 2 3 1 1 3 4 3 4 2 1 6 7 7 7 7 4 3 2 1 2 2 2 2 2 2 2 2 2 1 1 2 2 2 2 2 1 1 2 2
3 5 5 2 2 2 3 2 1 1 3 3 3 2 2 5 5 6 6 6 6 6 5 4 3 2 2 2 1 1 2 1 2 2 1 1 1 1 2 2 2 1 1 2
3 3 4 2 1 2 1 0 1 3 2 3 3 1 3 3 4 4 5 6 6 6 5 4 3 3 3 3 2 1 1 0 1 1 1 1 1 1 1 2 2 2 2 3
2 2 4 3 1 3 1 1 1 1 3 3 3 3 3 4 4 4 5 6 6 6 5 4 4 4 3 2 2 2 1 0 1 1 1 1 1 1 1 1 1 2 2 3
2 1 4 2 1 3 2 3 2 2 2 3 3 3 3 5 5 6 6 6 6 6 5 4 4 4 3 3 2 1 0 0 1 1 1 1 1 1 1 1 1 1 2 2
2 2 4 4 4 3 4 4 3 1 2 4 5 6 8 8 8 7 6 6 6 6 5 5 4 4 3 3 2 2 1 1 1 1 1 0 0 0 0 0 0 1 1 2
1 3 5 9 9 6 6 6 5 5 5 5 7 7 8 8 7 6 7 7 7 7 7 6 5 4 4 4 3 3 2 1 1 1 0 0 1 1 1 1 1 0 0 1
1 3 4 6 7 6 7 7 7 7 8 8 9 9 7 8 6 6 7 7 7 7 6 6 6 5 4 4 4 3 3 2 1 1 1 1 1 2 1 1 1 1 0 0
2 2 3 4 4 5 6 6 6 4 3 4 6 7 8 8 8 7 6 7 6 7 7 6 5 5 4 4 3 3 3 2 1 1 1 2 2 2 2 2 1 1 1 1
3 2 3 4 4 5 4 1 1 3 3 3 5 7 7 7 7 5 5 6 7 8 7 6 5 4 4 3 3 3 2 1 1 1 1 1 1 1 1 2 1 1 1 1
3 3 3 2 4 6 3 1 1 2 4 3 5 7 8 9 6 3 6 7 6 6 5 4 4 3 3 3 3 3 2 2 2 1 1 1 1 1 1 1 1 1 0 0
1 2 3 3 3 4 2 2 2 1 4 4 4 5 7 7 4 4 8 8 7 7 5 5 4 3 3 3 3 3 3 3 3 2 2 1 0 0 0 1 1 1 0 0
2 3 4 5 5 5 2 1 2 1 5 5 4 4 4 3 4 5 7 7 6 6 5 5 4 3 3 3 3 2 3 3 3 2 2 2 1 1 0 1 1 1 1 0
4 4 4 3 5 6 1 3 2 3 3 4 5 4 4 4 5 6 6 6 6 6 6 5 4 3 3 3 3 2 3 3 3 3 2 2 2 1 1 1 1 1 1 0
5 5 3 5 5 2 3 3 2 2 4 4 4 5 4 4 5 5 5 5 5 5 5 4 4 3 3 3 3 2 3 3 3 3 3 3 3 2 1 1 1 1 1 0
4 3 3 5 6 4 3 3 2 3 3 4 4 4 4 4 5 5 5 5 5 4 4 4 3 3 3 3 3 2 2 2 2 2 3 3 3 2 2 2 1 1 1 1
4 4 4 6 6 5 4 3 3 3 4 4 4 4 4 4 4 4 4 4 4 4 4 3 3 3 3 3 3 3 3 2 2 2 3 3 3 2 2 2 2 2 1 1
4 5 6 6 3 3 4 4 3 3 4 4 4 4 3 3 4 4 4 4 4 4 3 3 3 2 3 3 3 3 3 2 2 2 3 2 2 2 2 2 3 4 3 4
Wind_Direction
274 314 298 296 286 285 291 280 284 291 296 281 267 272 276 274 264 263 242 226 244 241 180 133 134 151 144 145 143 146 139 144 145 145 151 164 157 148 142 139 149 153 151 150
254 281 300 301 299 297 291 282 285 299 307 292 268 268 268 265 253 252 251 241 240 260 228 154 154 162 156 164 166 152 147 154 161 168 162 166 162 156 155 136 142 157 160 161
304 325 322 309 304 291 286 281 295 301 310 286 276 270 245 243 229 243 250 238 239 221 219 188 161 170 167 176 171 159 155 153 152 151 132 124 115 124 135 153 173 166 164 161
329 337 322 312 310 305 286 300 297 295 296 283 271 276 258 230 221 232 247 244 247 216 193 169 148 169 180 178 161 157 154 148 149 154 149 149 159 167 194 182 179 170 161 159
312 337 333 323 323 322 300 306 287 275 273 283 258 249 275 222 230 231 235 241 241 208 178 171 157 165 162 151 157 161 155 154 155 156 157 160 163 158 155 163 168 167 158 159
274 304 328 325 321 309 309 304 286 259 245 268 243 226 281 240 251 245 233 235 221 202 169 160 154 148 145 133 143 154 152 157 162 158 166 166 160 156 158 167 165 171 172 173
306 226 41 332 321 317 329 334 341 322 228 247 230 230 269 17 36 36 14 244 227 174 134 153 152 151 146 144 149 143 144 156 170 164 173 174 167 169 177 174 177 184 181 188
310 291 46 348 334 314 302 324 318 291 277 300 293 235 292 34 49 41 27 26 83 71 68 88 127 142 143 143 149 140 142 153 165 169 175 172 166 170 185 191 182 192 192 194
318 297 329 332 331 325 302 275 306 296 289 275 252 229 133 30 34 25 19 15 25 31 28 32 75 108 124 138 148 161 148 153 156 172 169 171 172 180 182 190 166 181 174 183
312 294 291 314 307 286 292 322 335 288 306 291 265 258 344 8 8 11 13 7 4 14 18 20 40 87 92 107 112 129 133 173 165 167 176 176 178 186 177 164 167 167 163 169
305 281 287 281 229 282 242 270 269 269 280 288 293 308 19 28 24 18 9 4 358 9 9 13 22 56 91 89 94 96 89 65 148 155 143 112 112 143 146 165 184 175 169 174
328 292 280 271 12 11 311 272 199 239 272 263 285 293 7 48 45 32 17 7 1 8 11 23 28 43 64 78 85 89 85 150 123 130 106 91 92 91 118 176 185 163 176 181
340 303 300 284 18 14 330 316 304 277 276 264 263 271 6 20 19 22 15 360 358 7 17 29 32 34 43 43 46 56 106 123 59 51 85 93 94 102 134 185 186 166 171 176
319 241 237 264 294 298 291 298 290 238 246 267 253 275 314 337 345 2 7 360 0 11 17 26 27 23 27 24 18 23 35 48 63 63 61 70 88 95 128 109 138 164 169 165
324 261 259 273 280 282 281 284 269 248 249 256 279 281 307 327 336 352 4 6 7 8 8 9 15 16 16 21 21 15 10 21 33 77 66 6 26 56 70 67 52 36 185 162
312 278 288 275 261 270 281 286 274 260 261 264 278 287 316 334 349 6 10 4 1 1 1 3 9 12 10 11 12 6 357 359 23 32 19 32 53 51 51 57 70 60 45 92
233 263 282 278 313 317 279 266 248 245 254 265 270 293 330 338 345 351 359 1 356 355 1 1 360 359 358 2 7 355 342 351 22 35 27 44 44 39 31 29 55 65 73 76
210 256 260 287 324 262 240 9 281 246 267 298 306 327 338 332 328 349 16 4 357 354 352 349 349 346 349 1 3 345 348 357 23 43 52 50 38 36 34 36 29 35 57 101
208 213 255 267 269 269 262 329 4 267 282 323 312 319 330 333 332 354 16 11 354 343 339 334 336 338 350 4 356 350 358 14 40 42 33 13 28 40 40 39 18 12 113 133
345 200 232 249 258 263 284 21 6 3 282 339 328 319 331 346 337 317 347 348 344 343 341 341 349 1 7 1 2 11 10 25 22 5 348 343 19 77 48 42 16 350 337 327
202 218 225 241 251 266 299 354 66 144 276 330 334 324 330 317 290 306 328 336 339 341 344 350 358 3 1 2 11 13 13 7 353 351 351 1 14 35 64 57 31 19 357 338
198 205 208 214 232 254 84 110 180 249 319 322 322 326 318 311 315 324 329 334 342 344 349 355 359 357 1 7 13 10 358 351 357 360 6 6 5 6 20 61 37 25 7 323
207 206 210 213 227 258 167 200 239 298 302 307 315 317 311 310 311 317 323 329 335 338 343 347 351 353 4 7 9 2 341 354 6 11 11 7 6 16 23 37 33 17 8 348
224 199 234 260 262 267 239 247 276 301 300 306 313 310 306 299 304 312 318 322 328 333 337 340 347 353 360 3 359 350 345 0 16 12 7 7 11 14 15 2 359 10 345 317
231 187 226 251 273 290 257 248 277 295 297 299 303 301 295 296 302 309 314 317 321 324 329 331 335 341 345 350 351 353 353 8 23 15 5 4 7 8 10 7 4 349 338 311
211 203 211 238 235 237 275 291 285 282 285 290 293 302 310 303 298 306 309 312 314 317 326 328 330 334 336 346 346 347 350 2 25 12 4 1 2 2 4 9 8 6 354 353
Height
1481 1483 1484 1482 1480 1478 1477 1476 1475 1470 1466 1466 1465 1462 1459 1458 1458 1458 1458 1459 1460 1461 1462 1463 1464 1465 1466 1468 1469 1471 1472 1474 1475 1477 1479 1479 1481 1484 1486 1489 1491 1493 1495 1496
1482 1483 1481 1479 1478 1478 1477 1475 1474 1469 1466 1465 1462 1460 1456 1455 1455 1456 1457 1457 1458 1459 1460 1460 1461 1463 1463 1465 1467 1468 1469 1471 1473 1475 1476 1478 1479 1481 1484 1487 1489 1491 1492 1493
1482 1482 1480 1478 1478 1477 1475 1475 1474 1473 1468 1463 1462 1459 1454 1451 1452 1454 1454 1456 1457 1457 1457 1458 1459 1460 1461 1463 1464 1466 1467 1469 1471 1472 1473 1476 1477 1479 1482 1484 1486 1488 1489 1491
1482 1480 1480 1479 1478 1477 1476 1472 1472 1471 1473 1470 1465 1467 1452 1449 1450 1451 1452 1453 1454 1454 1455 1456 1456 1458 1459 1461 1462 1463 1465 1466 1468 1470 1471 1472 1473 1475 1478 1480 1483 1485 1486 1488
1484 1482 1481 1480 1479 1477 1475 1472 1470 1470 1470 1471 1464 1466 1455 1447 1449 1449 1449 1450 1451 1452 1452 1453 1454 1455 1457 1458 1460 1461 1463 1464 1465 1467 1468 1470 1471 1473 1476 1478 1480 1481 1483 1485
1483 1482 1482 1481 1478 1477 1475 1472 1468 1466 1469 1473 1461 1462 1456 1450 1447 1446 1447 1447 1448 1449 1451 1452 1453 1454 1455 1457 1458 1459 1460 1461 1463 1464 1466 1467 1468 1470 1473 1474 1476 1478 1480 1481
1484 1481 1481 1481 1479 1477 1477 1478 1478 1475 1474 1468 1453 1457 1456 1448 1446 1446 1446 1446 1447 1448 1449 1450 1451 1452 1453 1454 1455 1456 1457 1459 1460 1462 1463 1464 1466 1467 1470 1471 1473 1475 1476 1478
1489 1486 1482 1481 1481 1481 1478 1479 1484 1483 1474 1464 1456 1458 1455 1448 1447 1446 1446 1446 1447 1447 1448 1449 1449 1450 1451 1452 1453 1454 1455 1457 1458 1459 1460 1461 1463 1465 1467 1469 1471 1472 1474 1475
1494 1488 1482 1481 1481 1481 1480 1480 1479 1482 1475 1474 1462 1452 1449 1447 1448 1448 1448 1447 1447 1447 1448 1448 1448 1449 1450 1451 1452 1453 1453 1454 1456 1457 1458 1459 1460 1462 1464 1466 1468 1469 1471 1472
1497 1495 1485 1482 1481 1481 1481 1479 1482 1483 1480 1472 1458 1454 1457 1455 1453 1451 1450 1449 1449 1448 1447 1447 1447 1448 1449 1450 1451 1452 1452 1453 1454 1456 1456 1457 1458 1460 1461 1463 1464 1466 1467 1469
1497 1498 1489 1484 1483 1482 1482 1483 1482 1481 1479 1478 1469 1465 1457 1456 1454 1454 1452 1451 1450 1448 1447 1447 1447 1447 1448 1449 1450 1450 1451 1452 1453 1453 1454 1455 1456 1457 1458 1460 1462 1463 1465 1467
1497 1498 1493 1484 1480 1480 1481 1480 1482 1486 1483 1477 1474 1472 1458 1457 1455 1454 1453 1452 1451 1449 1448 1447 1447 1447 1448 1448 1449 1449 1450 1451 1451 1452 1452 1453 1454 1455 1456 1458 1459 1461 1463 1464
1500 1501 1498 1486 1487 1486 1483 1480 1480 1482 1482 1479 1477 1472 1459 1457 1456 1456 1455 1453 1452 1450 1449 1448 1447 1447 1447 1447 1447 1448 1449 1449 1450 1450 1451 1451 1452 1453 1454 1456 1457 1459 1460 1461
1499 1501 1501 1494 1488 1488 1487 1483 1481 1483 1485 1480 1473 1468 1462 1460 1458 1457 1456 1454 1453 1452 1450 1449 1448 1448 1448 1448 1447 1447 1447 1448 1448 1449 1449 1450 1450 1451 1453 1454 1455 1456 1457 1458
1500 1500 1496 1491 1486 1485 1484 1482 1480 1481 1479 1478 1469 1466 1465 1462 1460 1459 1457 1455 1453 1452 1451 1450 1449 1448 1448 1447 1447 1447 1446 1447 1447 1447 1448 1449 1449 1450 1451 1452 1453 1454 1455 1456
1500 1500 1496 1490 1482 1481 1481 1479 1477 1477 1475 1473 1469 1467 1465 1463 1461 1459 1458 1456 1455 1454 1453 1451 1450 1449 1448 1447 1446 1446 1446 1445 1446 1446 1447 1447 1448 1448 1449 1450 1450 1452 1452 1453
1501 1502 1498 1489 1482 1481 1482 1477 1475 1474 1473 1472 1472 1470 1465 1463 1461 1460 1459 1457 1456 1455 1453 1451 1450 1449 1448 1447 1446 1445 1445 1445 1445 1445 1445 1446 1446 1447 1448 1448 1449 1449 1450 1450
1500 1500 1498 1491 1489 1490 1478 1472 1471 1472 1472 1471 1469 1468 1466 1465 1462 1461 1460 1458 1456 1455 1453 1451 1450 1448 1447 1446 1446 1445 1445 1444 1444 1444 1444 1445 1445 1446 1446 1446 1447 1447 1447 1448
1495 1498 1497 1494 1490 1479 1473 1472 1473 1474 1473 1470 1469 1468 1466 1463 1460 1459 1459 1458 1457 1455 1453 1451 1450 1448 1447 1446 1445 1444 1444 1443 1443 1443 1443 1444 1444 1444 1444 1445 1445 1446 1446 1447
1495 1496 1498 1493 1490 1483 1475 1473 1471 1474 1474 1469 1468 1468 1467 1464 1464 1462 1460 1458 1456 1454 1452 1450 1448 1447 1446 1445 1444 1443 1443 1442 1442 1442 1443 1443 1443 1443 1443 1443 1444 1444 1445 1445
1498 1497 1497 1493 1490 1481 1476 1473 1472 1479 1477 1470 1469 1468 1467 1466 1466 1464 1460 1457 1455 1453 1451 1449 1447 1446 1445 1444 1443 1443 1442 1442 1442 1442 1442 1442 1442 1442 1442 1442 1442 1442 1443 1443
1493 1493 1493 1490 1490 1483 1475 1474 1476 1475 1471 1470 1468 1467 1466 1465 1463 1461 1458 1456 1453 1451 1449 1448 1446 1445 1445 1444 1443 1442 1441 1441 1441 1441 1441 1441 1441 1441 1441 1440 1440 1441 1441 1441
1486 1486 1484 1484 1481 1473 1472 1472 1471 1471 1470 1468 1466 1465 1464 1463 1461 1459 1457 1455 1452 1450 1448 1447 1446 1445 1444 1443 1442 1441 1441 1441 1440 1440 1439 1439 1439 1439 1439 1439 1439 1439 1439 1440
1480 1479 1480 1478 1472 1470 1470 1469 1469 1468 1467 1466 1465 1463 1462 1460 1459 1457 1455 1453 1451 1449 1448 1447 1446 1444 1443 1443 1442 1441 1440 1440 1439 1439 1438 1438 1438 1438 1438 1438 1438 1438 1438 1438
1475 1477 1477 1475 1470 1468 1466 1466 1466 1465 1464 1463 1462 1461 1459 1458 1456 1455 1453 1452 1450 1449 1447 1446 1445 1444 1443 1442 1441 1440 1440 1439 1438 1438 1437 1437 1437 1437 1437 1437 1437 1437 1437 1438
1470 1471 1473 1469 1466 1466 1464 1463 1463 1462 1461 1460 1459 1458 1457 1456 1454 1453 1451 1450 1449 1447 1446 1445 1444 1443 1442 1441 1440 1440 1439 1438 1437 1437 1436 1437 1437 1436 1436 1436 1436 1436 1437 1436